Location: B�di�
(14.6834°N, 3.1047°W)
Time: 15:35:27
(UTC+00:00)

USA 238 - Pass Details

Date: 24 January 2020
Orbit: 1023 x 1189 km, 63.4° (Epoch: 20 February)

Event Time Altitude Azimuth Distance (km) Brightness Sun altitude
Rises 19:12:47 0° 210° (SSW) 3,760 7.3 -15.9°
Reaches altitude 10° 19:15:24 10° 213° (SSW) 2,805 6.6 -16.5°
Maximum altitude 19:21:56 67° 295° (WNW) 1,102 3.9 -18.1°
Drops below altitude 10° 19:28:33 10° 17° (NNE) 2,838 5.6 -19.6°
Enters shadow 19:28:47 - 18° (NNE) 2,925 5.7 -19.7°
